Sanborn, NY

8:40 PM EST on December 07, 2016 (GMT -0500)
Niagara Falls International

Weather History for KIAG - July, 2013

Change the Weather History Date:

Thursday, July 4, 2013

  Actual Average Record
Temperature  
Mean Temperature 75 °F -  
Max Temperature 82 °F 77 °F 91 °F (2005)
Min Temperature 69 °F 58 °F 51 °F (2008)
Cooling Degree Days 10    
Growing Degree Days 25 (Base 50)    
Moisture  
Dew Point 68 °F    
Average Humidity 83    
Maximum Humidity 94    
Minimum Humidity 62    
Precipitation  
Precipitation 0.11 in - - ()
Sea Level Pressure  
Sea Level Pressure 30.14 in    
Wind  
Wind Speed 7 mph (SW)    
Max Wind Speed 13 mph    
Max Gust Speed 17 mph    
Visibility 9 miles    
Events Rain    
Averages and records for this station are not official NWS values.
T = Trace of Precipitation, MM = Missing Value Source: NWS Daily Summary

Daily Weather History Graph

Daily Weather History Graph

Search for Another Location

Airport or City:

Trip Planner

Search our weather history database for the weather conditions in past years. The results will help you decide how hot, cold, wet, or windy it might be!

Date:

Astronomy

Jul. 04, 2013 Rise Set
Actual Time 5:41 AM EDT 8:58 PM EDT
Civil Twilight 5:06 AM EDT 9:33 PM EDT
Nautical Twilight 4:21 AM EDT 10:18 PM EDT
Astronomical Twilight 3:25 AM EDT 11:14 PM EDT
Moon 2:59 AM EDT (7/4) 5:59 PM EDT (7/4)
Length of Visible Light 16h 26m
Length of Day
15h 16m
Waning Crescent, 11% of the Moon is Illuminated
Jul 4
Waning Crescent
Jul 8
New
Jul 15
First Quarter
Jul 22
Full
Jul 29
Last Quarter

Hourly Weather History & Observations

Time (EDT) Temp. Heat Index Dew Point Humidity Pressure Visibility Wind Dir Wind Speed Gust Speed Precip Events Conditions
12:53 AM 72.0 °F - 70.0 °F 93% 30.12 in 6.0 mi WSW 6.9 mph - 0.04 in Rain Light Rain
1:53 AM 71.1 °F - 69.1 °F 93% 30.12 in 8.0 mi West 3.5 mph - 0.02 in   Clear
2:53 AM 71.1 °F - 68.0 °F 90% 30.11 in 8.0 mi SSE 4.6 mph - N/A   Partly Cloudy
3:53 AM 70.0 °F - 66.9 °F 90% 30.11 in 8.0 mi South 3.5 mph - N/A   Partly Cloudy
4:53 AM 69.1 °F - 66.9 °F 93% 30.11 in 9.0 mi South 3.5 mph - N/A   Partly Cloudy
5:53 AM 69.1 °F - 66.9 °F 93% 30.12 in 10.0 mi South 4.6 mph - 0.00 in Rain Light Rain
6:53 AM 70.0 °F - 68.0 °F 93% 30.13 in 8.0 mi SSW 4.6 mph - 0.00 in   Clear
7:08 AM 71.6 °F - 68.0 °F 88% 30.14 in 8.0 mi SSW 5.8 mph - N/A   Overcast
7:53 AM 72.0 °F - 68.0 °F 87% 30.14 in 10.0 mi SSW 10.4 mph - N/A   Overcast
8:30 AM 73.4 °F - 68.0 °F 83% 30.17 in 10.0 mi SW 8.1 mph - 0.00 in Rain Light Rain
8:53 AM 72.0 °F - 66.9 °F 84% 30.17 in 10.0 mi WSW 11.5 mph - 0.00 in Rain Light Rain
9:02 AM 71.6 °F - 66.2 °F 83% 30.18 in 8.0 mi WSW 11.5 mph - 0.00 in Rain Light Rain
9:14 AM 71.6 °F - 68.0 °F 88% 30.19 in 7.0 mi WSW 11.5 mph - 0.00 in Rain Light Rain
9:47 AM 69.8 °F - 68.0 °F 94% 30.18 in 1.8 mi West 9.2 mph - 0.04 in Rain Light Rain
9:53 AM 70.0 °F - 68.0 °F 93% 30.17 in 1.8 mi WNW 8.1 mph - 0.05 in Rain Light Rain
10:01 AM 69.8 °F - 68.0 °F 94% 30.18 in 4.0 mi West 5.8 mph - N/A Rain Light Rain
10:27 AM 71.6 °F - 68.0 °F 88% 30.17 in 10.0 mi SW 6.9 mph - N/A   Overcast
10:37 AM 71.6 °F - 68.0 °F 88% 30.17 in 10.0 mi Variable 3.5 mph - N/A Rain Light Rain
10:53 AM 72.0 °F - 68.0 °F 87% 30.16 in 10.0 mi Calm Calm - N/A Rain Light Rain
10:59 AM 71.6 °F - 68.0 °F 88% 30.17 in 10.0 mi South 4.6 mph - 0.00 in   Overcast
11:45 AM 73.4 °F - 69.8 °F 88% 30.17 in 10.0 mi South 6.9 mph - 0.00 in Rain Light Rain
11:47 AM 73.4 °F - 68.0 °F 83% 30.17 in 10.0 mi South 6.9 mph - 0.00 in Rain Light Rain
11:53 AM 72.0 °F - 68.0 °F 87% 30.16 in 10.0 mi South 8.1 mph - 0.00 in Rain Light Rain
12:19 PM 75.2 °F - 69.8 °F 83% 30.16 in 10.0 mi South 8.1 mph - 0.00 in   Mostly Cloudy
12:53 PM 75.9 °F - 69.1 °F 79% 30.15 in 10.0 mi South 9.2 mph - 0.00 in   Mostly Cloudy
1:53 PM 78.1 °F - 68.0 °F 71% 30.14 in 10.0 mi SW 12.7 mph - N/A   Mostly Cloudy
2:53 PM 80.1 °F 82.3 °F 66.9 °F 64% 30.12 in 10.0 mi SW 10.4 mph - N/A   Mostly Cloudy
3:53 PM 81.0 °F 83.3 °F 66.9 °F 62% 30.12 in 10.0 mi SW 12.7 mph - N/A   Mostly Cloudy
4:53 PM 81.0 °F 83.3 °F 66.9 °F 62% 30.11 in 10.0 mi WSW 11.5 mph 17.3 mph N/A   Mostly Cloudy
5:53 PM 80.1 °F 82.3 °F 66.9 °F 64% 30.10 in 10.0 mi WSW 8.1 mph - N/A   Mostly Cloudy
6:53 PM 80.1 °F 82.3 °F 66.9 °F 64% 30.10 in 10.0 mi SW 11.5 mph - N/A   Mostly Cloudy
7:53 PM 79.0 °F - 66.9 °F 66% 30.11 in 10.0 mi SSW 11.5 mph - N/A   Mostly Cloudy
8:53 PM 75.0 °F - 68.0 °F 79% 30.11 in 10.0 mi SSW 8.1 mph - N/A   Mostly Cloudy
9:53 PM 73.0 °F - 68.0 °F 84% 30.12 in 10.0 mi SSW 5.8 mph - N/A   Mostly Cloudy
10:53 PM 71.1 °F - 66.9 °F 87% 30.12 in 9.0 mi SSW 6.9 mph - N/A   Scattered Clouds
11:53 PM 71.1 °F - 66.9 °F 87% 30.12 in 8.0 mi South 5.8 mph - N/A   Mostly Cloudy